Springfield, IL

11:36 PM CST on December 14, 2019 (GMT -0600)
Capital

Weather History for KSPI - October, 2019

Change the Weather History Date:

Friday, October 4, 2019

  Actual Average Record
Temperature  
Mean Temperature 57 °F 59 °F  
Max Temperature 68 °F 71 °F 90 °F (1897)
Min Temperature 45 °F 47 °F 32 °F (1968)
Degree Days  
Heating Degree Days 8 7  
Month to date heating degree days 10 27  
Since 1 July heating degree days 11 108  
Cooling Degree Days 0 1  
Month to date cooling degree days 32 6  
Year to date cooling degree days 1309 1105  
Growing Degree Days 7 (Base 50)    
Moisture  
Dew Point 45 °F    
Average Humidity 66    
Maximum Humidity 86    
Minimum Humidity 45    
Precipitation  
Precipitation 0.00 in 0.10 in 4.74 in (1941)
Month to date precipitation 0.06 0.40  
Year to date precipitation 40.61 28.95  
Snow  
Snow 0.00 in 0.00 in 0.00 in ()
Month to date snowfall 0.0 0.0  
Since 1 July snowfall 0.0 0.0  
Since 1 September snowfall 0.0 0.0  
Snow Depth 0.00 in    
Sea Level Pressure  
Sea Level Pressure 30.31 in    
Wind  
Wind Speed 8 mph (NE)    
Max Wind Speed 16 mph    
Max Gust Speed 21 mph    
Visibility 10 miles    
Events      
T = Trace of Precipitation, MM = Missing Value Source: NWS Daily Summary

Daily Weather History Graph

Daily Weather History Graph

Search for Another Location

Airport or City:

Astronomy

Oct. 04, 2019 Rise Set
Actual Time 6:57 AM CDT 6:36 PM CDT
Civil Twilight 6:30 AM CDT 7:03 PM CDT
Nautical Twilight 5:59 AM CDT 7:34 PM CDT
Astronomical Twilight 5:27 AM CDT 8:06 PM CDT
Moon 1:28 PM CDT (10/4) 11:06 PM CDT (10/4)
Length of Visible Light 12h 32m
Length of Day
11h 38m
Waxing Crescent, 40% of the Moon is Illuminated
Oct 4
Waxing Crescent
Oct 5
First Quarter
Oct 13
Full
Oct 21
Last Quarter
Oct 27
New

Hourly Weather History & Observations

Time (CDT) Temp. Windchill Dew Point Humidity Pressure Visibility Wind Dir Wind Speed Gust Speed Precip Events Conditions
12:52 AM 50.0 °F - 45.0 °F 83% 30.30 in 10.0 mi North 5.8 mph - N/A   Clear
1:52 AM 48.9 °F - 44.1 °F 83% 30.31 in 10.0 mi North 8.1 mph - N/A   Clear
2:52 AM 48.0 °F - 44.1 °F 86% 30.30 in 10.0 mi North 6.9 mph - N/A   Clear
3:52 AM 46.9 °F - 43.0 °F 86% 30.32 in 10.0 mi North 6.9 mph - N/A   Clear
4:52 AM 46.0 °F 42.5 °F 43.0 °F 89% 30.33 in 10.0 mi North 6.9 mph - N/A   Clear
5:52 AM 46.0 °F 41.4 °F 43.0 °F 89% 30.35 in 10.0 mi North 9.2 mph - N/A   Clear
6:52 AM 46.0 °F 42.5 °F 42.1 °F 86% 30.36 in 10.0 mi North 6.9 mph - N/A   Clear
7:52 AM 46.9 °F - 43.0 °F 86% 30.38 in 10.0 mi NNE 6.9 mph - N/A   Clear
8:52 AM 50.0 °F - 44.1 °F 80% 30.40 in 10.0 mi NNE 9.2 mph - N/A   Clear
9:52 AM 54.0 °F - 45.0 °F 72% 30.40 in 10.0 mi NE 8.1 mph - N/A   Clear
10:52 AM 57.9 °F - 45.0 °F 62% 30.38 in 10.0 mi NNE 5.8 mph - N/A   Clear
11:52 AM 61.0 °F - 46.0 °F 58% 30.36 in 10.0 mi ENE 5.8 mph - N/A   Clear
12:52 PM 63.0 °F - 46.0 °F 54% 30.34 in 10.0 mi NE 10.4 mph - N/A   Clear
1:52 PM 66.0 °F - 46.9 °F 50% 30.32 in 10.0 mi Variable 5.8 mph 18.4 mph N/A   Clear
2:52 PM 66.9 °F - 46.0 °F 47% 30.29 in 10.0 mi ENE 10.4 mph - N/A   Clear
3:52 PM 68.0 °F - 46.0 °F 45% 30.27 in 10.0 mi ENE 11.5 mph - N/A   Clear
4:52 PM 66.9 °F - 45.0 °F 45% 30.27 in 10.0 mi East 9.2 mph - N/A   Clear
5:52 PM 64.9 °F - 46.0 °F 50% 30.27 in 10.0 mi ENE 6.9 mph - N/A   Clear
6:52 PM 60.1 °F - 46.9 °F 62% 30.27 in 10.0 mi ENE 6.9 mph - N/A   Clear
7:52 PM 57.0 °F - 46.9 °F 69% 30.27 in 10.0 mi ENE 9.2 mph - N/A   Clear
8:52 PM 55.9 °F - 46.9 °F 72% 30.27 in 10.0 mi ENE 8.1 mph - N/A   Clear
9:52 PM 55.9 °F - 45.0 °F 67% 30.26 in 10.0 mi ENE 12.7 mph - N/A   Clear
10:52 PM 54.0 °F - 45.0 °F 72% 30.25 in 10.0 mi East 9.2 mph - N/A   Clear
11:52 PM 53.1 °F - 44.1 °F 71% 30.23 in 10.0 mi East 10.4 mph - N/A   Clear